Year,Month,Day,Hour,Minute,Value (Times are PST for temperature in C)
2015,05,24,00,00,13.00
2015,05,24,00,01,13.00
2015,05,24,00,02,13.00
2015,05,24,00,03,12.90
2015,05,24,00,04,12.90
2015,05,24,00,05,12.90
2015,05,24,00,06,12.90
2015,05,24,00,07,12.90
2015,05,24,00,08,12.90
2015,05,24,00,09,12.90
2015,05,24,00,10,12.90
2015,05,24,00,11,12.80
2015,05,24,00,12,12.80
2015,05,24,00,13,12.80
2015,05,24,00,14,12.80
2015,05,24,00,15,12.80
2015,05,24,00,16,12.80
2015,05,24,00,17,12.80
2015,05,24,00,18,12.80
2015,05,24,00,19,12.80
2015,05,24,00,20,12.80
2015,05,24,00,21,12.80
2015,05,24,00,22,12.80
2015,05,24,00,23,12.80
2015,05,24,00,24,12.80
2015,05,24,00,25,12.70
2015,05,24,00,26,12.70
2015,05,24,00,27,12.70
2015,05,24,00,28,12.70
2015,05,24,00,29,12.70
2015,05,24,00,30,12.70
2015,05,24,00,31,12.70
2015,05,24,00,32,12.70
2015,05,24,00,33,12.70
2015,05,24,00,34,12.70
2015,05,24,00,35,12.70
2015,05,24,00,36,12.70
2015,05,24,00,37,12.60
2015,05,24,00,38,12.60
2015,05,24,00,39,12.60
2015,05,24,00,40,12.60
2015,05,24,00,41,12.60
2015,05,24,00,42,12.60
2015,05,24,00,43,12.60
2015,05,24,00,44,12.60
2015,05,24,00,45,12.60
2015,05,24,00,46,12.60
2015,05,24,00,47,12.60
2015,05,24,00,48,12.60
2015,05,24,00,49,12.50
2015,05,24,00,50,12.50
2015,05,24,00,51,12.50
2015,05,24,00,52,12.50
2015,05,24,00,53,12.60
2015,05,24,00,54,12.60
2015,05,24,00,55,12.60
2015,05,24,00,56,12.60
2015,05,24,00,57,12.60
2015,05,24,00,58,12.60
2015,05,24,00,59,12.60
2015,05,24,01,00,12.60
2015,05,24,01,01,12.60
2015,05,24,01,02,12.60
2015,05,24,01,03,12.60
2015,05,24,01,04,12.60
2015,05,24,01,05,12.60
2015,05,24,01,06,12.50
2015,05,24,01,07,12.50
2015,05,24,01,08,12.50
2015,05,24,01,09,12.50
2015,05,24,01,10,12.50
2015,05,24,01,11,12.50
2015,05,24,01,12,12.50
2015,05,24,01,13,12.40
2015,05,24,01,14,12.40
2015,05,24,01,15,12.40
2015,05,24,01,16,12.40
2015,05,24,01,17,12.40
2015,05,24,01,18,12.40
2015,05,24,01,19,12.40
2015,05,24,01,20,12.40
2015,05,24,01,21,12.40
2015,05,24,01,22,12.40
2015,05,24,01,23,12.40
2015,05,24,01,24,12.40
2015,05,24,01,25,12.40
2015,05,24,01,26,12.40
2015,05,24,01,27,12.40
2015,05,24,01,28,12.40
2015,05,24,01,29,12.50
2015,05,24,01,30,12.50
2015,05,24,01,31,12.50
2015,05,24,01,32,12.50
2015,05,24,01,33,12.60
2015,05,24,01,34,12.60
2015,05,24,01,35,12.60
2015,05,24,01,36,12.60
2015,05,24,01,37,12.60
2015,05,24,01,38,12.60
2015,05,24,01,39,12.60
2015,05,24,01,40,12.60
2015,05,24,01,41,12.60
2015,05,24,01,42,12.60
2015,05,24,01,43,12.60
2015,05,24,01,44,12.60
2015,05,24,01,45,12.60
2015,05,24,01,46,12.60
2015,05,24,01,47,12.60
2015,05,24,01,48,12.60
2015,05,24,01,49,12.60
2015,05,24,01,50,12.60
2015,05,24,01,51,12.60
2015,05,24,01,52,12.60
2015,05,24,01,53,12.60
2015,05,24,01,54,12.50
2015,05,24,01,55,12.50
2015,05,24,01,56,12.50
2015,05,24,01,57,12.50
2015,05,24,01,58,12.50
2015,05,24,01,59,12.50
2015,05,24,02,00,12.50
2015,05,24,02,01,12.50
2015,05,24,02,02,12.50
2015,05,24,02,03,12.50
2015,05,24,02,04,12.50
2015,05,24,02,05,12.50
2015,05,24,02,06,12.50
2015,05,24,02,07,12.60
2015,05,24,02,08,12.60
2015,05,24,02,09,12.60
2015,05,24,02,10,12.60
2015,05,24,02,11,12.60
2015,05,24,02,12,12.60
2015,05,24,02,13,12.60
2015,05,24,02,14,12.60
2015,05,24,02,15,12.60
2015,05,24,02,16,12.60
2015,05,24,02,17,12.60
2015,05,24,02,18,12.60
2015,05,24,02,19,12.60
2015,05,24,02,20,12.60
2015,05,24,02,21,12.60
2015,05,24,02,22,12.60
2015,05,24,02,23,12.60
2015,05,24,02,24,12.60
2015,05,24,02,25,12.60
2015,05,24,02,26,12.60
2015,05,24,02,27,12.60
2015,05,24,02,28,12.60
2015,05,24,02,29,12.60
2015,05,24,02,30,12.60
2015,05,24,02,31,12.60
2015,05,24,02,32,12.60
2015,05,24,02,33,12.60
2015,05,24,02,34,12.60
2015,05,24,02,35,12.60
2015,05,24,02,36,12.60
2015,05,24,02,37,12.60
2015,05,24,02,38,12.60
2015,05,24,02,39,12.60
2015,05,24,02,40,12.60
2015,05,24,02,41,12.60
2015,05,24,02,42,12.60
2015,05,24,02,43,12.60
2015,05,24,02,44,12.60
2015,05,24,02,45,12.60
2015,05,24,02,46,12.60
2015,05,24,02,47,12.60
2015,05,24,02,48,12.60
2015,05,24,02,49,12.60
2015,05,24,02,50,12.60
2015,05,24,02,51,12.60
2015,05,24,02,52,12.60
2015,05,24,02,53,12.60
2015,05,24,02,54,12.60
2015,05,24,02,55,12.60
2015,05,24,02,56,12.60
2015,05,24,02,57,12.60
2015,05,24,02,58,12.60
2015,05,24,02,59,12.60
2015,05,24,03,00,12.60
2015,05,24,03,01,12.60
2015,05,24,03,02,12.60
2015,05,24,03,03,12.60
2015,05,24,03,04,12.60
2015,05,24,03,05,12.60
2015,05,24,03,06,12.60
2015,05,24,03,07,12.60
2015,05,24,03,08,12.60
2015,05,24,03,09,12.60
2015,05,24,03,10,12.60
2015,05,24,03,11,12.60
2015,05,24,03,12,12.60
2015,05,24,03,13,12.60
2015,05,24,03,14,12.60
2015,05,24,03,15,12.70
2015,05,24,03,16,12.70
2015,05,24,03,17,12.70
2015,05,24,03,18,12.70
2015,05,24,03,19,12.70
2015,05,24,03,20,12.70
2015,05,24,03,21,12.70
2015,05,24,03,22,12.70
2015,05,24,03,23,12.70
2015,05,24,03,24,12.70
2015,05,24,03,25,12.70
2015,05,24,03,26,12.70
2015,05,24,03,27,12.70
2015,05,24,03,28,12.70
2015,05,24,03,29,12.70
2015,05,24,03,30,12.70
2015,05,24,03,31,12.70
2015,05,24,03,32,12.70
2015,05,24,03,33,12.70
2015,05,24,03,34,12.70
2015,05,24,03,35,12.70
2015,05,24,03,36,12.70
2015,05,24,03,37,12.70
2015,05,24,03,38,12.70
2015,05,24,03,39,12.70
2015,05,24,03,40,12.70
2015,05,24,03,41,12.70
2015,05,24,03,42,12.70
2015,05,24,03,43,12.70
2015,05,24,03,44,12.70
2015,05,24,03,45,12.70
2015,05,24,03,46,12.70
2015,05,24,03,47,12.70
2015,05,24,03,48,12.70
2015,05,24,03,49,12.70
2015,05,24,03,50,12.70
2015,05,24,03,51,12.70
2015,05,24,03,52,12.70
2015,05,24,03,53,12.70
2015,05,24,03,54,12.70
2015,05,24,03,55,12.70
2015,05,24,03,56,12.70
2015,05,24,03,57,12.70
2015,05,24,03,58,12.80
2015,05,24,03,59,12.80
2015,05,24,04,00,12.80
2015,05,24,04,01,12.80
2015,05,24,04,02,12.80
2015,05,24,04,03,12.80
2015,05,24,04,04,12.80
2015,05,24,04,05,12.80
2015,05,24,04,06,12.80
2015,05,24,04,07,12.80
2015,05,24,04,08,12.80
2015,05,24,04,09,12.80
2015,05,24,04,10,12.80
2015,05,24,04,11,12.80
2015,05,24,04,12,12.80
2015,05,24,04,13,12.80
2015,05,24,04,14,12.80
2015,05,24,04,15,12.80
2015,05,24,04,16,12.80
2015,05,24,04,17,12.80
2015,05,24,04,18,12.80
2015,05,24,04,19,12.80
2015,05,24,04,20,12.80
2015,05,24,04,21,12.80
2015,05,24,04,22,12.80
2015,05,24,04,23,12.80
2015,05,24,04,24,12.80
2015,05,24,04,25,12.80
2015,05,24,04,26,12.80
2015,05,24,04,27,12.80
2015,05,24,04,28,12.80
2015,05,24,04,29,12.80
2015,05,24,04,30,12.80
2015,05,24,04,31,12.80
2015,05,24,04,32,12.80
2015,05,24,04,33,12.80
2015,05,24,04,34,12.80
2015,05,24,04,35,12.80
2015,05,24,04,36,12.80
2015,05,24,04,37,12.80
2015,05,24,04,38,12.80
2015,05,24,04,39,12.80
2015,05,24,04,40,12.80
2015,05,24,04,41,12.80
2015,05,24,04,42,12.80
2015,05,24,04,43,12.80
2015,05,24,04,44,12.80
2015,05,24,04,45,12.80
2015,05,24,04,46,12.80
2015,05,24,04,47,12.80
2015,05,24,04,48,12.80
2015,05,24,04,49,12.80
2015,05,24,04,50,12.80
2015,05,24,04,51,12.80
2015,05,24,04,52,12.80
2015,05,24,04,53,12.80
2015,05,24,04,54,12.80
2015,05,24,04,55,12.80
2015,05,24,04,56,12.80
2015,05,24,04,57,12.80
2015,05,24,04,58,12.80
2015,05,24,04,59,12.80
2015,05,24,05,00,12.80
2015,05,24,05,01,12.80
2015,05,24,05,02,12.80
2015,05,24,05,03,12.80
2015,05,24,05,04,12.80
2015,05,24,05,05,12.80
2015,05,24,05,06,12.80
2015,05,24,05,07,12.80
2015,05,24,05,08,12.80
2015,05,24,05,09,12.80
2015,05,24,05,10,12.80
2015,05,24,05,11,12.80
2015,05,24,05,12,12.80
2015,05,24,05,13,12.80
2015,05,24,05,14,12.80
2015,05,24,05,15,12.80
2015,05,24,05,16,12.80
2015,05,24,05,17,12.80
2015,05,24,05,18,12.80
2015,05,24,05,19,12.80
2015,05,24,05,20,12.80
2015,05,24,05,21,12.80
2015,05,24,05,22,12.80
2015,05,24,05,23,12.80
2015,05,24,05,24,12.80
2015,05,24,05,25,12.80
2015,05,24,05,26,12.80
2015,05,24,05,27,12.80
2015,05,24,05,28,12.80
2015,05,24,05,29,12.80
2015,05,24,05,30,12.80
2015,05,24,05,31,12.80
2015,05,24,05,32,12.80
2015,05,24,05,33,12.80
2015,05,24,05,34,12.80
2015,05,24,05,35,12.80
2015,05,24,05,36,12.80
2015,05,24,05,37,12.80
2015,05,24,05,38,12.80
2015,05,24,05,39,12.80
2015,05,24,05,40,12.80
2015,05,24,05,41,12.80
2015,05,24,05,42,12.80
2015,05,24,05,43,12.80
2015,05,24,05,44,12.80
2015,05,24,05,45,12.80
2015,05,24,05,46,12.80
2015,05,24,05,47,12.80
2015,05,24,05,48,12.80
2015,05,24,05,49,12.80
2015,05,24,05,50,12.80
2015,05,24,05,51,12.80
2015,05,24,05,52,12.80
2015,05,24,05,53,12.80
2015,05,24,05,54,12.80
2015,05,24,05,55,12.80
2015,05,24,05,56,12.80
2015,05,24,05,57,12.80
2015,05,24,05,58,12.80
2015,05,24,05,59,12.80
2015,05,24,06,00,12.80
2015,05,24,06,01,12.80
2015,05,24,06,02,12.80
2015,05,24,06,03,12.80
2015,05,24,06,04,12.80
2015,05,24,06,05,12.80
2015,05,24,06,06,12.80
2015,05,24,06,07,12.80
2015,05,24,06,08,12.70
2015,05,24,06,09,12.70
2015,05,24,06,10,12.70
2015,05,24,06,11,12.70
2015,05,24,06,12,12.70
2015,05,24,06,13,12.70
2015,05,24,06,14,12.70
2015,05,24,06,15,12.70
2015,05,24,06,16,12.70
2015,05,24,06,17,12.70
2015,05,24,06,18,12.70
2015,05,24,06,19,12.70
2015,05,24,06,20,12.70
2015,05,24,06,21,12.70
2015,05,24,06,22,12.70
2015,05,24,06,23,12.70
2015,05,24,06,24,12.70
2015,05,24,06,25,12.70
2015,05,24,06,26,12.70
2015,05,24,06,27,12.70
2015,05,24,06,28,12.60
2015,05,24,06,29,12.60
2015,05,24,06,30,12.60
2015,05,24,06,31,12.60
2015,05,24,06,32,12.60
2015,05,24,06,33,12.60
2015,05,24,06,34,12.60
2015,05,24,06,35,12.60
2015,05,24,06,36,12.60
2015,05,24,06,37,12.60
2015,05,24,06,38,12.60
2015,05,24,06,39,12.60
2015,05,24,06,40,12.60
2015,05,24,06,41,12.60
2015,05,24,06,42,12.60
2015,05,24,06,43,12.60
2015,05,24,06,44,12.60
2015,05,24,06,45,12.60
2015,05,24,06,46,12.60
2015,05,24,06,47,12.60
2015,05,24,06,48,12.60
2015,05,24,06,49,12.60
2015,05,24,06,50,12.60
2015,05,24,06,51,12.60
2015,05,24,06,52,12.60
2015,05,24,06,53,12.60
2015,05,24,06,54,12.60
2015,05,24,06,55,12.60
2015,05,24,06,56,12.60
2015,05,24,06,57,12.60
2015,05,24,06,58,12.60
2015,05,24,06,59,12.60
2015,05,24,07,00,12.60
2015,05,24,07,01,12.60
2015,05,24,07,02,12.60
2015,05,24,07,03,12.60
2015,05,24,07,04,12.60
2015,05,24,07,05,12.70
2015,05,24,07,06,12.70
2015,05,24,07,07,12.70
2015,05,24,07,08,12.70
2015,05,24,07,09,12.70
2015,05,24,07,10,12.70
2015,05,24,07,11,12.70
2015,05,24,07,12,12.70
2015,05,24,07,13,12.70
2015,05,24,07,14,12.70
2015,05,24,07,15,12.70
2015,05,24,07,16,12.70
2015,05,24,07,17,12.70
2015,05,24,07,18,12.70
2015,05,24,07,19,12.70
2015,05,24,07,20,12.70
2015,05,24,07,21,12.70
2015,05,24,07,22,12.70
2015,05,24,07,23,12.70
2015,05,24,07,24,12.70
2015,05,24,07,25,12.70
2015,05,24,07,26,12.70
2015,05,24,07,27,12.80
2015,05,24,07,28,12.80
2015,05,24,07,29,12.80
2015,05,24,07,30,12.80
2015,05,24,07,31,12.80
2015,05,24,07,32,12.80
2015,05,24,07,33,12.70
2015,05,24,07,34,12.80
2015,05,24,07,35,12.80
2015,05,24,07,36,12.80
2015,05,24,07,37,12.80
2015,05,24,07,38,12.80
2015,05,24,07,39,12.80
2015,05,24,07,40,12.80
2015,05,24,07,41,12.80
2015,05,24,07,42,12.80
2015,05,24,07,43,12.80
2015,05,24,07,44,12.80
2015,05,24,07,45,12.80
2015,05,24,07,46,12.80
2015,05,24,07,47,12.80
2015,05,24,07,48,12.80
2015,05,24,07,49,12.80
2015,05,24,07,50,12.80
2015,05,24,07,51,12.80
2015,05,24,07,52,12.90
2015,05,24,07,53,12.90
2015,05,24,07,54,12.90
2015,05,24,07,55,12.90
2015,05,24,07,56,12.90
2015,05,24,07,57,12.90
2015,05,24,07,58,12.80
2015,05,24,07,59,12.80
2015,05,24,08,00,12.80
2015,05,24,08,01,12.80
2015,05,24,08,02,12.80
2015,05,24,08,03,12.80
2015,05,24,08,04,12.80
2015,05,24,08,05,12.80
2015,05,24,08,06,12.80
2015,05,24,08,07,12.80
2015,05,24,08,08,12.80
2015,05,24,08,09,12.80
2015,05,24,08,10,12.80
2015,05,24,08,11,12.80
2015,05,24,08,12,12.80
2015,05,24,08,13,12.80
2015,05,24,08,14,12.80
2015,05,24,08,15,12.70
2015,05,24,08,16,12.70
2015,05,24,08,17,12.70
2015,05,24,08,18,12.70
2015,05,24,08,19,12.70
2015,05,24,08,20,12.70
2015,05,24,08,21,12.60
2015,05,24,08,22,12.60
2015,05,24,08,23,12.60
2015,05,24,08,24,12.60
2015,05,24,08,25,12.60
2015,05,24,08,26,12.60
2015,05,24,08,27,12.60
2015,05,24,08,28,12.60
2015,05,24,08,29,12.60
2015,05,24,08,30,12.60
2015,05,24,08,31,12.60
2015,05,24,08,32,12.50
2015,05,24,08,33,12.50
2015,05,24,08,34,12.60
2015,05,24,08,35,12.60
2015,05,24,08,36,12.60
2015,05,24,08,37,12.60
2015,05,24,08,38,12.60
2015,05,24,08,39,12.60
2015,05,24,08,40,12.60
2015,05,24,08,41,12.60
2015,05,24,08,42,12.60
2015,05,24,08,43,12.60
2015,05,24,08,44,12.60
2015,05,24,08,45,12.70
2015,05,24,08,46,12.70
2015,05,24,08,47,12.70
2015,05,24,08,48,12.70
2015,05,24,08,49,12.70
2015,05,24,08,50,12.70
2015,05,24,08,51,12.80
2015,05,24,08,52,12.80
2015,05,24,08,53,12.80
2015,05,24,08,54,12.80
2015,05,24,08,55,12.80
2015,05,24,08,56,12.90
2015,05,24,08,57,12.90
2015,05,24,08,58,12.90
2015,05,24,08,59,13.00
2015,05,24,09,00,13.00
2015,05,24,09,01,13.10
2015,05,24,09,02,13.10
2015,05,24,09,03,13.10
2015,05,24,09,04,13.10
2015,05,24,09,05,13.20
2015,05,24,09,06,13.20
2015,05,24,09,07,13.20
2015,05,24,09,08,13.20
2015,05,24,09,09,13.20
2015,05,24,09,10,13.20
2015,05,24,09,11,13.20
2015,05,24,09,12,13.20
2015,05,24,09,13,13.30
2015,05,24,09,14,13.30
2015,05,24,09,15,13.30
2015,05,24,09,16,13.30
2015,05,24,09,17,13.30
2015,05,24,09,18,13.30
2015,05,24,09,19,13.30
2015,05,24,09,20,13.40
2015,05,24,09,21,13.40
2015,05,24,09,22,13.40
2015,05,24,09,23,13.40
2015,05,24,09,24,13.40
2015,05,24,09,25,13.40
2015,05,24,09,26,13.40
2015,05,24,09,27,13.40
2015,05,24,09,28,13.40
2015,05,24,09,29,13.50
2015,05,24,09,30,13.50
2015,05,24,09,31,13.50
2015,05,24,09,32,13.40
2015,05,24,09,33,13.50
2015,05,24,09,34,13.50
2015,05,24,09,35,13.50
2015,05,24,09,36,13.50
2015,05,24,09,37,13.50
2015,05,24,09,38,13.50
2015,05,24,09,39,13.50
2015,05,24,09,40,13.50
2015,05,24,09,41,13.50
2015,05,24,09,42,13.50
2015,05,24,09,43,13.50
2015,05,24,09,44,13.60
2015,05,24,09,45,13.60
2015,05,24,09,46,13.50
2015,05,24,09,47,13.50
2015,05,24,09,48,13.50
2015,05,24,09,49,13.50
2015,05,24,09,50,13.50
2015,05,24,09,51,13.50
2015,05,24,09,52,13.60
2015,05,24,09,53,13.60
2015,05,24,09,54,13.60
2015,05,24,09,55,13.60
2015,05,24,09,56,13.70
2015,05,24,09,57,13.70
2015,05,24,09,58,13.70
2015,05,24,09,59,13.80
2015,05,24,10,00,13.80
2015,05,24,10,01,13.80
2015,05,24,10,02,13.80
2015,05,24,10,03,13.80
2015,05,24,10,04,13.80
2015,05,24,10,05,13.80
2015,05,24,10,06,13.80
2015,05,24,10,07,13.80
2015,05,24,10,08,13.80
2015,05,24,10,09,13.80
2015,05,24,10,10,13.80
2015,05,24,10,11,13.80
2015,05,24,10,12,13.90
2015,05,24,10,13,13.90
2015,05,24,10,14,13.90
2015,05,24,10,15,13.90
2015,05,24,10,16,14.00
2015,05,24,10,17,14.00
2015,05,24,10,18,14.00
2015,05,24,10,19,14.10
2015,05,24,10,20,14.10
2015,05,24,10,21,14.10
2015,05,24,10,22,14.20
2015,05,24,10,23,14.20
2015,05,24,10,24,14.20
2015,05,24,10,25,14.20
2015,05,24,10,26,14.20
2015,05,24,10,27,14.30
2015,05,24,10,28,14.30
2015,05,24,10,29,14.30
2015,05,24,10,30,14.40
2015,05,24,10,31,14.40
2015,05,24,10,32,14.50
2015,05,24,10,33,14.50
2015,05,24,10,34,14.60
2015,05,24,10,35,14.60
2015,05,24,10,36,14.60
2015,05,24,10,37,14.60
2015,05,24,10,38,14.60
2015,05,24,10,39,14.70
2015,05,24,10,40,14.70
2015,05,24,10,41,14.70
2015,05,24,10,42,14.70
2015,05,24,10,43,14.80
2015,05,24,10,44,14.80
2015,05,24,10,45,14.90
2015,05,24,10,46,14.90
2015,05,24,10,47,14.90
2015,05,24,10,48,14.90
2015,05,24,10,49,14.90
2015,05,24,10,50,14.90
2015,05,24,10,51,14.80
2015,05,24,10,52,14.80
2015,05,24,10,53,14.80
2015,05,24,10,54,14.80
2015,05,24,10,55,14.80
2015,05,24,10,56,14.90
2015,05,24,10,57,14.90
2015,05,24,10,58,14.90
2015,05,24,10,59,14.90
2015,05,24,11,00,15.00
2015,05,24,11,01,15.00
2015,05,24,11,02,15.00
2015,05,24,11,03,15.00
2015,05,24,11,04,14.90
2015,05,24,11,05,14.90
2015,05,24,11,06,14.90
2015,05,24,11,07,14.90
2015,05,24,11,08,14.90
2015,05,24,11,09,14.90
2015,05,24,11,10,14.90
2015,05,24,11,11,14.90
2015,05,24,11,12,14.90
2015,05,24,11,13,14.90
2015,05,24,11,14,14.90
2015,05,24,11,15,14.90
2015,05,24,11,16,15.00
2015,05,24,11,17,15.00
2015,05,24,11,18,15.00
2015,05,24,11,19,15.10
2015,05,24,11,20,15.10
2015,05,24,11,21,15.10
2015,05,24,11,22,15.10
2015,05,24,11,23,15.10
2015,05,24,11,24,15.20
2015,05,24,11,25,15.20
2015,05,24,11,26,15.20
2015,05,24,11,27,15.30
2015,05,24,11,28,15.30
2015,05,24,11,29,15.30
2015,05,24,11,30,15.30
2015,05,24,11,31,15.40
2015,05,24,11,32,15.40
2015,05,24,11,33,15.40
2015,05,24,11,34,15.50
2015,05,24,11,35,15.50
2015,05,24,11,36,15.50
2015,05,24,11,37,15.50
2015,05,24,11,38,15.60
2015,05,24,11,39,15.60
2015,05,24,11,40,15.60
2015,05,24,11,41,15.60
2015,05,24,11,42,15.60
2015,05,24,11,43,15.60
2015,05,24,11,44,15.60
2015,05,24,11,45,15.60
2015,05,24,11,46,15.60
2015,05,24,11,47,15.60
2015,05,24,11,48,15.60
2015,05,24,11,49,15.60
2015,05,24,11,50,15.60
2015,05,24,11,51,15.60
2015,05,24,11,52,15.60
2015,05,24,11,53,15.70
2015,05,24,11,54,15.80
2015,05,24,11,55,15.90
2015,05,24,11,56,16.00
2015,05,24,11,57,16.10
2015,05,24,11,58,16.20
2015,05,24,11,59,16.30
2015,05,24,12,00,16.30
2015,05,24,12,01,16.40
2015,05,24,12,02,16.40
2015,05,24,12,03,16.50
2015,05,24,12,04,16.50
2015,05,24,12,05,16.50
2015,05,24,12,06,16.50
2015,05,24,12,07,16.40
2015,05,24,12,08,16.40
2015,05,24,12,09,16.30
2015,05,24,12,10,16.30
2015,05,24,12,11,16.30
2015,05,24,12,12,16.30
2015,05,24,12,13,16.30
2015,05,24,12,14,16.30
2015,05,24,12,15,16.30
2015,05,24,12,16,16.30
2015,05,24,12,17,16.30
2015,05,24,12,18,16.30
2015,05,24,12,19,16.30
2015,05,24,12,20,16.30
2015,05,24,12,21,16.30
2015,05,24,12,22,16.30
2015,05,24,12,23,16.30
2015,05,24,12,24,16.30
2015,05,24,12,25,16.30
2015,05,24,12,26,16.40
2015,05,24,12,27,16.50
2015,05,24,12,28,16.60
2015,05,24,12,29,16.60
2015,05,24,12,30,16.70
2015,05,24,12,31,16.70
2015,05,24,12,32,16.70
2015,05,24,12,33,16.80
2015,05,24,12,34,16.80
2015,05,24,12,35,16.90
2015,05,24,12,36,17.00
2015,05,24,12,37,17.00
2015,05,24,12,38,17.00
2015,05,24,12,39,17.00
2015,05,24,12,40,17.10
2015,05,24,12,41,17.10
2015,05,24,12,42,17.20
2015,05,24,12,43,17.20
2015,05,24,12,44,17.30
2015,05,24,12,45,17.40
2015,05,24,12,46,17.50
2015,05,24,12,47,17.60
2015,05,24,12,48,17.70
2015,05,24,12,49,17.80
2015,05,24,12,50,17.80
2015,05,24,12,51,17.90
2015,05,24,12,52,17.90
2015,05,24,12,53,17.90
2015,05,24,12,54,17.90
2015,05,24,12,55,17.90
2015,05,24,12,56,17.90
2015,05,24,12,57,17.90
2015,05,24,12,58,18.00
2015,05,24,12,59,18.10
2015,05,24,13,00,18.10
2015,05,24,13,01,18.20
2015,05,24,13,02,18.30
2015,05,24,13,03,18.40
2015,05,24,13,04,18.50
2015,05,24,13,05,18.50
2015,05,24,13,06,18.60
2015,05,24,13,07,18.60
2015,05,24,13,08,18.50
2015,05,24,13,09,18.40
2015,05,24,13,10,18.40
2015,05,24,13,11,18.30
2015,05,24,13,12,18.30
2015,05,24,13,13,18.30
2015,05,24,13,14,18.30
2015,05,24,13,15,18.40
2015,05,24,13,16,18.40
2015,05,24,13,17,18.40
2015,05,24,13,18,18.40
2015,05,24,13,19,18.60
2015,05,24,13,20,18.70
2015,05,24,13,21,18.80
2015,05,24,13,22,18.80
2015,05,24,13,23,18.80
2015,05,24,13,24,18.90
2015,05,24,13,25,18.90
2015,05,24,13,26,18.90
2015,05,24,13,27,18.90
2015,05,24,13,28,19.00
2015,05,24,13,29,19.00
2015,05,24,13,30,19.10
2015,05,24,13,31,19.30
2015,05,24,13,32,19.40
2015,05,24,13,33,19.50
2015,05,24,13,34,19.60
2015,05,24,13,35,19.70
2015,05,24,13,36,19.70
2015,05,24,13,37,19.70
2015,05,24,13,38,19.70
2015,05,24,13,39,19.70
2015,05,24,13,40,19.70
2015,05,24,13,41,19.80
2015,05,24,13,42,19.90
2015,05,24,13,43,20.00
2015,05,24,13,44,20.00
2015,05,24,13,45,19.90
2015,05,24,13,46,19.90
2015,05,24,13,47,19.90
2015,05,24,13,48,19.90
2015,05,24,13,49,19.80
2015,05,24,13,50,19.80
2015,05,24,13,51,19.80
2015,05,24,13,52,19.80
2015,05,24,13,53,19.80
2015,05,24,13,54,19.80
2015,05,24,13,55,19.80
2015,05,24,13,56,19.80
2015,05,24,13,57,19.80
2015,05,24,13,58,19.80
2015,05,24,13,59,19.80
2015,05,24,14,00,19.90
2015,05,24,14,01,20.00
2015,05,24,14,02,20.00
2015,05,24,14,03,20.10
2015,05,24,14,04,20.20
2015,05,24,14,05,20.30
2015,05,24,14,06,20.30
2015,05,24,14,07,20.30
2015,05,24,14,08,20.30
2015,05,24,14,09,20.30
2015,05,24,14,10,20.30
2015,05,24,14,11,20.30
2015,05,24,14,12,20.30
2015,05,24,14,13,20.30
2015,05,24,14,14,20.40
2015,05,24,14,15,20.40
2015,05,24,14,16,20.50
2015,05,24,14,17,20.60
2015,05,24,14,18,20.60
2015,05,24,14,19,20.60
2015,05,24,14,20,20.60
2015,05,24,14,21,20.70
2015,05,24,14,22,20.80
2015,05,24,14,23,20.80
2015,05,24,14,24,20.80
2015,05,24,14,25,20.90
2015,05,24,14,26,20.90
2015,05,24,14,27,20.80
2015,05,24,14,28,20.80
2015,05,24,14,29,20.80
2015,05,24,14,30,20.80
2015,05,24,14,31,20.80
2015,05,24,14,32,20.80
2015,05,24,14,33,20.80
2015,05,24,14,34,20.80
2015,05,24,14,35,20.80
2015,05,24,14,36,20.80
2015,05,24,14,37,20.90
2015,05,24,14,38,20.90
2015,05,24,14,39,21.00
2015,05,24,14,40,21.10
2015,05,24,14,41,21.10
2015,05,24,14,42,21.10
2015,05,24,14,43,21.10
2015,05,24,14,44,21.20
2015,05,24,14,45,21.30
2015,05,24,14,46,21.30
2015,05,24,14,47,21.30
2015,05,24,14,48,21.40
2015,05,24,14,49,21.40
2015,05,24,14,50,21.30
2015,05,24,14,51,21.30
2015,05,24,14,52,21.40
2015,05,24,14,53,21.40
2015,05,24,14,54,21.30
2015,05,24,14,55,21.30
2015,05,24,14,56,21.30
2015,05,24,14,57,21.30
2015,05,24,14,58,21.30
2015,05,24,14,59,21.30
2015,05,24,15,00,21.30
2015,05,24,15,01,21.30
2015,05,24,15,02,21.30
2015,05,24,15,03,21.30
2015,05,24,15,04,21.30
2015,05,24,15,05,21.30
2015,05,24,15,06,21.20
2015,05,24,15,07,21.20
2015,05,24,15,08,21.20
2015,05,24,15,09,21.10
2015,05,24,15,10,21.10
2015,05,24,15,11,21.10
2015,05,24,15,12,21.20
2015,05,24,15,13,21.20
2015,05,24,15,14,21.20
2015,05,24,15,15,21.20
2015,05,24,15,16,21.30
2015,05,24,15,17,21.50
2015,05,24,15,18,21.60
2015,05,24,15,19,21.60
2015,05,24,15,20,21.60
2015,05,24,15,21,21.60
2015,05,24,15,22,21.60
2015,05,24,15,23,21.60
2015,05,24,15,24,21.60
2015,05,24,15,25,21.60
2015,05,24,15,26,21.60
2015,05,24,15,27,21.60
2015,05,24,15,28,21.60
2015,05,24,15,29,21.60
2015,05,24,15,30,21.60
2015,05,24,15,31,21.60
2015,05,24,15,32,21.60
2015,05,24,15,33,21.50
2015,05,24,15,34,21.50
2015,05,24,15,35,21.50
2015,05,24,15,36,21.50
2015,05,24,15,37,21.60
2015,05,24,15,38,21.70
2015,05,24,15,39,21.70
2015,05,24,15,40,21.80
2015,05,24,15,41,21.80
2015,05,24,15,42,21.90
2015,05,24,15,43,22.00
2015,05,24,15,44,22.00
2015,05,24,15,45,21.90
2015,05,24,15,46,21.90
2015,05,24,15,47,21.90
2015,05,24,15,48,21.80
2015,05,24,15,49,21.80
2015,05,24,15,50,21.80
2015,05,24,15,51,21.70
2015,05,24,15,52,21.70
2015,05,24,15,53,21.80
2015,05,24,15,54,21.80
2015,05,24,15,55,21.80
2015,05,24,15,56,21.90
2015,05,24,15,57,22.00
2015,05,24,15,58,22.10
2015,05,24,15,59,22.10
2015,05,24,16,00,22.20
2015,05,24,16,01,22.30
2015,05,24,16,02,22.30
2015,05,24,16,03,22.40
2015,05,24,16,04,22.40
2015,05,24,16,05,22.50
2015,05,24,16,06,22.60
2015,05,24,16,07,22.70
2015,05,24,16,08,22.70
2015,05,24,16,09,22.70
2015,05,24,16,10,22.70
2015,05,24,16,11,22.60
2015,05,24,16,12,22.70
2015,05,24,16,13,22.70
2015,05,24,16,14,22.80
2015,05,24,16,15,23.00
2015,05,24,16,16,23.10
2015,05,24,16,17,23.20
2015,05,24,16,18,23.20
2015,05,24,16,19,23.30
2015,05,24,16,20,23.30
2015,05,24,16,21,23.30
2015,05,24,16,22,23.30
2015,05,24,16,23,23.30
2015,05,24,16,24,23.30
2015,05,24,16,25,23.20
2015,05,24,16,26,23.10
2015,05,24,16,27,23.10
2015,05,24,16,28,23.00
2015,05,24,16,29,23.00
2015,05,24,16,30,22.90
2015,05,24,16,31,23.00
2015,05,24,16,32,23.00
2015,05,24,16,33,23.00
2015,05,24,16,34,22.90
2015,05,24,16,35,22.90
2015,05,24,16,36,22.70
2015,05,24,16,37,22.60
2015,05,24,16,38,22.50
2015,05,24,16,39,22.40
2015,05,24,16,40,22.30
2015,05,24,16,41,22.30
2015,05,24,16,42,22.30
2015,05,24,16,43,22.20
2015,05,24,16,44,22.20
2015,05,24,16,45,22.20
2015,05,24,16,46,22.30
2015,05,24,16,47,22.30
2015,05,24,16,48,22.30
2015,05,24,16,49,22.20
2015,05,24,16,50,22.20
2015,05,24,16,51,22.10
2015,05,24,16,52,22.10
2015,05,24,16,53,22.10
2015,05,24,16,54,22.10
2015,05,24,16,55,22.00
2015,05,24,16,56,21.90
2015,05,24,16,57,21.90
2015,05,24,16,58,21.90
2015,05,24,16,59,21.80
2015,05,24,17,00,21.80
2015,05,24,17,01,21.80
2015,05,24,17,02,21.70
2015,05,24,17,03,21.70
2015,05,24,17,04,21.70
2015,05,24,17,05,21.60
2015,05,24,17,06,21.50
2015,05,24,17,07,21.40
2015,05,24,17,08,21.30
2015,05,24,17,09,21.30
2015,05,24,17,10,21.20
2015,05,24,17,11,21.10
2015,05,24,17,12,21.10
2015,05,24,17,13,21.00
2015,05,24,17,14,21.00
2015,05,24,17,15,20.90
2015,05,24,17,16,20.80
2015,05,24,17,17,20.80
2015,05,24,17,18,20.70
2015,05,24,17,19,20.70